Terminal Aerodrome Forecast
Issued by NWS Buffalo, NY

Home | Current Version | Previous Version | Text Only | Print | Product List | Glossary On
Versions: 1 2 3 4 5 6 7 8 9 10 11 12 13 14 15 16 17 18 19 20 21 22 23 24 25 26 27 28 29 30 31 32 33 34 35 36 37 38 39 40 41 42 43 44 45 46 47 48 49 50
000
FTUS41 KBUF 171740
TAFBUF
TAF
KBUF 171740Z 1718/1818 17005KT 6SM -SHRA OVC035
      TEMPO 1718/1720 4SM SHRA BR OVC015
     FM172300 05005KT P6SM BKN050
     FM180600 05005KT P6SM BKN030
     FM180900 05005KT 6SM BR BKN007
     FM181500 VRB04KT P6SM SCT035=

USA.gov is the U.S. government's official web portal to all federal, state and local government web resources and services.